GFSSW_prec_pwat_000.txt.gz
Precipitable_Water
0.71 0.69 0.68 0.69 0.70 0.70 0.66 0.62 0.61 0.59 0.57 0.54 0.57 0.58 0.60 0.61 0.60 0.51 0.27 0.38 0.47 0.44 0.37 0.35 0.37 0.37 0.42 0.39 0.46 0.46 0.38 0.37 0.44 0.47 0.53 0.49 0.48 0.51 0.60 0.63 0.63 0.62 0.62 0.64 0.69
0.71 0.70 0.71 0.71 0.70 0.68 0.65 0.61 0.58 0.60 0.55 0.58 0.59 0.63 0.61 0.62 0.46 0.35 0.44 0.47 0.46 0.48 0.37 0.30 0.28 0.38 0.41 0.41 0.45 0.40 0.32 0.37 0.49 0.56 0.47 0.44 0.41 0.39 0.41 0.46 0.53 0.60 0.71 0.70 0.59
0.71 0.73 0.74 0.73 0.71 0.69 0.66 0.61 0.59 0.55 0.55 0.58 0.64 0.61 0.62 0.60 0.43 0.40 0.50 0.43 0.49 0.46 0.40 0.40 0.39 0.46 0.39 0.41 0.36 0.32 0.26 0.29 0.38 0.49 0.37 0.32 0.27 0.28 0.26 0.29 0.36 0.40 0.55 0.62 0.58
0.73 0.76 0.74 0.72 0.71 0.67 0.64 0.62 0.58 0.59 0.56 0.62 0.63 0.63 0.62 0.66 0.33 0.35 0.39 0.43 0.48 0.47 0.42 0.43 0.44 0.42 0.39 0.34 0.36 0.25 0.26 0.23 0.31 0.29 0.27 0.24 0.19 0.20 0.22 0.25 0.40 0.46 0.51 0.58 0.59
0.75 0.76 0.74 0.72 0.70 0.66 0.61 0.61 0.57 0.56 0.59 0.64 0.64 0.65 0.68 0.51 0.38 0.43 0.44 0.50 0.50 0.42 0.38 0.41 0.43 0.41 0.31 0.30 0.29 0.23 0.25 0.24 0.25 0.23 0.22 0.18 0.14 0.15 0.19 0.25 0.43 0.50 0.56 0.55 0.60
0.76 0.77 0.75 0.71 0.69 0.65 0.62 0.61 0.56 0.58 0.64 0.66 0.64 0.77 0.60 0.38 0.49 0.45 0.45 0.50 0.49 0.48 0.45 0.46 0.43 0.42 0.34 0.33 0.25 0.25 0.23 0.20 0.22 0.21 0.17 0.14 0.15 0.17 0.21 0.31 0.44 0.47 0.50 0.55 0.64
0.75 0.76 0.73 0.70 0.66 0.63 0.60 0.58 0.60 0.63 0.66 0.66 0.69 0.76 0.55 0.40 0.49 0.44 0.48 0.46 0.49 0.49 0.45 0.43 0.42 0.37 0.32 0.27 0.27 0.22 0.15 0.10 0.12 0.18 0.14 0.17 0.18 0.20 0.26 0.32 0.41 0.43 0.50 0.59 0.67
0.72 0.73 0.71 0.68 0.63 0.60 0.59 0.62 0.65 0.67 0.67 0.66 0.71 0.66 0.40 0.50 0.46 0.44 0.42 0.39 0.43 0.48 0.43 0.41 0.41 0.35 0.30 0.27 0.22 0.15 0.19 0.17 0.25 0.27 0.26 0.25 0.21 0.29 0.33 0.29 0.34 0.43 0.49 0.56 0.64
0.70 0.71 0.67 0.64 0.61 0.62 0.65 0.66 0.66 0.64 0.62 0.67 0.58 0.53 0.33 0.48 0.31 0.36 0.37 0.34 0.39 0.40 0.39 0.37 0.40 0.33 0.28 0.19 0.19 0.22 0.17 0.22 0.24 0.32 0.30 0.27 0.25 0.32 0.30 0.31 0.32 0.34 0.44 0.55 0.68
0.70 0.69 0.61 0.59 0.63 0.67 0.65 0.65 0.66 0.63 0.61 0.61 0.60 0.39 0.37 0.29 0.27 0.29 0.33 0.33 0.33 0.32 0.27 0.29 0.29 0.24 0.24 0.21 0.18 0.22 0.23 0.23 0.25 0.30 0.30 0.30 0.27 0.30 0.35 0.38 0.37 0.39 0.44 0.50 0.55
0.69 0.68 0.61 0.68 0.68 0.65 0.62 0.57 0.42 0.35 0.40 0.32 0.39 0.37 0.32 0.34 0.30 0.25 0.28 0.29 0.29 0.24 0.17 0.28 0.27 0.25 0.27 0.31 0.31 0.29 0.27 0.24 0.29 0.35 0.30 0.30 0.31 0.35 0.43 0.44 0.46 0.48 0.50 0.55 0.60
0.66 0.67 0.66 0.67 0.67 0.66 0.64 0.59 0.58 0.61 0.35 0.44 0.42 0.38 0.37 0.34 0.24 0.25 0.33 0.30 0.30 0.30 0.37 0.32 0.27 0.34 0.34 0.32 0.31 0.32 0.28 0.28 0.32 0.32 0.30 0.34 0.34 0.43 0.47 0.48 0.49 0.51 0.55 0.60 0.66
0.64 0.66 0.68 0.69 0.70 0.71 0.65 0.66 0.80 0.72 0.40 0.35 0.36 0.33 0.38 0.38 0.27 0.29 0.39 0.38 0.33 0.30 0.29 0.26 0.28 0.32 0.35 0.33 0.28 0.29 0.28 0.28 0.29 0.30 0.30 0.33 0.33 0.40 0.48 0.50 0.51 0.55 0.60 0.65 0.68
0.64 0.69 0.67 0.71 0.62 0.70 0.62 0.79 0.80 0.73 0.26 0.25 0.25 0.30 0.37 0.37 0.25 0.32 0.38 0.38 0.34 0.29 0.30 0.30 0.34 0.32 0.27 0.23 0.28 0.21 0.36 0.33 0.29 0.24 0.20 0.32 0.25 0.38 0.43 0.43 0.48 0.53 0.59 0.63 0.66
0.67 0.74 0.71 0.74 0.71 0.68 0.79 0.84 0.73 0.60 0.12 0.23 0.28 0.35 0.34 0.32 0.25 0.22 0.36 0.40 0.30 0.30 0.32 0.28 0.31 0.32 0.27 0.27 0.27 0.26 0.31 0.26 0.23 0.20 0.21 0.29 0.28 0.36 0.43 0.40 0.46 0.55 0.61 0.64 0.64
0.68 0.71 0.72 0.74 0.83 0.83 0.86 0.67 0.54 0.32 0.14 0.23 0.25 0.22 0.25 0.31 0.30 0.24 0.31 0.43 0.43 0.32 0.33 0.34 0.39 0.32 0.29 0.32 0.32 0.33 0.29 0.31 0.31 0.26 0.18 0.31 0.31 0.33 0.39 0.43 0.50 0.59 0.60 0.62 0.60
0.68 0.72 0.72 0.85 0.70 0.85 0.70 0.46 0.32 0.25 0.28 0.19 0.19 0.23 0.25 0.22 0.24 0.24 0.26 0.27 0.29 0.23 0.24 0.31 0.30 0.32 0.36 0.30 0.33 0.30 0.26 0.21 0.21 0.21 0.22 0.37 0.36 0.39 0.48 0.54 0.55 0.57 0.59 0.62 0.64
0.70 0.73 0.83 0.82 0.94 0.75 0.54 0.34 0.24 0.25 0.25 0.25 0.27 0.29 0.26 0.31 0.32 0.33 0.28 0.28 0.36 0.38 0.30 0.27 0.26 0.30 0.33 0.36 0.30 0.28 0.26 0.23 0.18 0.23 0.29 0.37 0.30 0.36 0.53 0.58 0.63 0.60 0.63 0.65 0.66
0.71 0.69 0.71 0.66 0.79 0.62 0.38 0.30 0.27 0.27 0.28 0.25 0.31 0.28 0.26 0.32 0.33 0.33 0.32 0.28 0.36 0.41 0.30 0.32 0.27 0.31 0.28 0.36 0.38 0.27 0.20 0.28 0.21 0.25 0.19 0.27 0.34 0.44 0.49 0.51 0.55 0.60 0.62 0.59 0.63
0.57 0.56 0.50 0.68 0.69 0.45 0.41 0.35 0.36 0.34 0.31 0.28 0.22 0.30 0.27 0.24 0.30 0.31 0.32 0.33 0.31 0.40 0.43 0.37 0.19 0.28 0.34 0.36 0.32 0.24 0.29 0.18 0.18 0.11 0.13 0.23 0.28 0.31 0.40 0.45 0.48 0.49 0.50 0.57 0.63
0.57 0.35 0.51 0.71 0.52 0.32 0.36 0.39 0.36 0.36 0.35 0.26 0.28 0.31 0.35 0.29 0.32 0.31 0.30 0.34 0.37 0.35 0.39 0.38 0.23 0.27 0.35 0.30 0.24 0.26 0.22 0.23 0.22 0.20 0.13 0.15 0.22 0.38 0.41 0.44 0.44 0.47 0.52 0.59 0.65
0.51 0.25 0.66 0.62 0.27 0.30 0.38 0.47 0.39 0.34 0.38 0.36 0.38 0.39 0.37 0.38 0.36 0.35 0.33 0.34 0.42 0.37 0.25 0.36 0.26 0.22 0.22 0.29 0.30 0.28 0.26 0.24 0.16 0.18 0.23 0.22 0.22 0.43 0.45 0.47 0.50 0.53 0.57 0.62 0.68
0.38 0.53 0.79 0.57 0.19 0.21 0.43 0.43 0.39 0.34 0.34 0.34 0.36 0.43 0.45 0.40 0.35 0.40 0.40 0.46 0.40 0.34 0.27 0.32 0.22 0.16 0.22 0.30 0.30 0.26 0.27 0.27 0.26 0.25 0.19 0.17 0.18 0.44 0.49 0.50 0.55 0.55 0.59 0.62 0.65
0.49 0.41 0.53 0.47 0.38 0.28 0.38 0.36 0.35 0.39 0.35 0.35 0.39 0.45 0.41 0.39 0.42 0.38 0.36 0.39 0.30 0.34 0.37 0.36 0.23 0.18 0.13 0.17 0.22 0.20 0.22 0.27 0.26 0.21 0.22 0.23 0.25 0.36 0.43 0.45 0.51 0.55 0.58 0.60 0.63
0.63 0.43 0.44 0.18 0.23 0.42 0.48 0.41 0.35 0.30 0.36 0.37 0.33 0.38 0.38 0.34 0.37 0.35 0.38 0.33 0.27 0.31 0.33 0.31 0.17 0.21 0.22 0.24 0.24 0.22 0.21 0.23 0.22 0.24 0.21 0.24 0.27 0.37 0.43 0.47 0.52 0.56 0.59 0.60 0.60
0.60 0.48 0.46 0.26 0.32 0.43 0.48 0.40 0.33 0.34 0.35 0.32 0.30 0.39 0.43 0.36 0.36 0.31 0.34 0.30 0.22 0.31 0.29 0.31 0.18 0.18 0.16 0.24 0.23 0.19 0.20 0.21 0.22 0.24 0.26 0.29 0.31 0.46 0.51 0.55 0.55 0.57 0.57 0.56 0.55
0.78 0.73 0.37 0.28 0.36 0.39 0.43 0.41 0.39 0.42 0.40 0.40 0.40 0.41 0.41 0.45 0.50 0.50 0.49 0.45 0.37 0.31 0.28 0.22 0.18 0.16 0.13 0.23 0.20 0.15 0.22 0.22 0.26 0.30 0.29 0.25 0.35 0.47 0.48 0.51 0.53 0.55 0.56 0.55 0.54

GFSSW_prec_pwat_003.txt.gz
Precipitable_Water
0.79 0.74 0.69 0.69 0.69 0.70 0.70 0.69 0.66 0.62 0.58 0.58 0.55 0.51 0.54 0.57 0.59 0.55 0.36 0.33 0.45 0.47 0.37 0.35 0.36 0.36 0.41 0.40 0.44 0.43 0.35 0.40 0.45 0.49 0.57 0.63 0.63 0.71 0.77 0.65 0.69 0.71 0.64 0.73 0.96
0.80 0.72 0.70 0.70 0.72 0.71 0.69 0.68 0.64 0.60 0.61 0.59 0.53 0.56 0.60 0.61 0.51 0.38 0.32 0.43 0.45 0.44 0.33 0.31 0.28 0.33 0.35 0.40 0.42 0.38 0.33 0.42 0.48 0.46 0.53 0.56 0.54 0.58 0.58 0.59 0.57 0.59 0.71 0.84 0.78
0.75 0.71 0.70 0.74 0.75 0.73 0.70 0.68 0.63 0.60 0.60 0.55 0.55 0.62 0.63 0.64 0.38 0.33 0.48 0.45 0.41 0.50 0.39 0.37 0.32 0.36 0.37 0.40 0.38 0.36 0.29 0.37 0.46 0.54 0.57 0.48 0.47 0.42 0.44 0.43 0.47 0.43 0.57 0.67 0.64
0.73 0.70 0.72 0.76 0.75 0.72 0.69 0.68 0.64 0.61 0.56 0.53 0.59 0.63 0.65 0.60 0.28 0.39 0.45 0.45 0.51 0.51 0.41 0.39 0.40 0.39 0.37 0.32 0.37 0.31 0.29 0.32 0.43 0.48 0.37 0.29 0.30 0.32 0.29 0.33 0.44 0.45 0.51 0.59 0.59
0.70 0.71 0.74 0.77 0.74 0.71 0.68 0.63 0.63 0.60 0.57 0.56 0.63 0.65 0.62 0.46 0.37 0.49 0.51 0.54 0.51 0.45 0.37 0.39 0.37 0.39 0.33 0.33 0.35 0.26 0.25 0.28 0.28 0.33 0.26 0.24 0.23 0.20 0.20 0.35 0.49 0.51 0.53 0.56 0.63
0.70 0.73 0.76 0.77 0.74 0.70 0.67 0.62 0.60 0.57 0.55 0.63 0.67 0.72 0.54 0.34 0.50 0.51 0.51 0.50 0.51 0.47 0.44 0.45 0.40 0.43 0.38 0.34 0.28 0.25 0.24 0.24 0.24 0.22 0.20 0.15 0.16 0.18 0.21 0.46 0.47 0.48 0.49 0.55 0.61
0.72 0.74 0.76 0.75 0.72 0.69 0.65 0.61 0.58 0.55 0.61 0.67 0.74 0.71 0.52 0.38 0.52 0.51 0.48 0.49 0.50 0.47 0.42 0.47 0.45 0.40 0.35 0.31 0.25 0.25 0.21 0.15 0.20 0.19 0.15 0.16 0.13 0.17 0.28 0.47 0.43 0.48 0.52 0.58 0.66
0.74 0.73 0.72 0.71 0.69 0.65 0.61 0.58 0.58 0.62 0.66 0.70 0.78 0.66 0.40 0.46 0.51 0.46 0.44 0.46 0.47 0.51 0.46 0.42 0.45 0.38 0.29 0.32 0.26 0.22 0.18 0.15 0.18 0.18 0.19 0.18 0.16 0.23 0.33 0.43 0.42 0.50 0.58 0.64 0.69
0.75 0.71 0.71 0.70 0.65 0.61 0.59 0.61 0.63 0.66 0.71 0.75 0.64 0.56 0.36 0.45 0.39 0.41 0.44 0.40 0.42 0.46 0.44 0.41 0.41 0.32 0.28 0.24 0.20 0.18 0.15 0.22 0.25 0.30 0.28 0.22 0.23 0.31 0.32 0.40 0.43 0.52 0.56 0.61 0.68
0.72 0.69 0.67 0.64 0.61 0.60 0.64 0.67 0.71 0.70 0.68 0.70 0.67 0.39 0.40 0.32 0.31 0.39 0.40 0.39 0.39 0.38 0.32 0.33 0.33 0.28 0.27 0.21 0.15 0.16 0.21 0.22 0.23 0.26 0.29 0.27 0.27 0.32 0.32 0.35 0.43 0.48 0.54 0.58 0.64
0.69 0.69 0.62 0.60 0.62 0.66 0.66 0.61 0.46 0.39 0.49 0.28 0.34 0.39 0.38 0.40 0.32 0.32 0.34 0.34 0.38 0.34 0.26 0.31 0.27 0.23 0.22 0.24 0.27 0.26 0.23 0.24 0.27 0.30 0.30 0.31 0.33 0.36 0.39 0.43 0.43 0.45 0.48 0.53 0.59
0.66 0.67 0.62 0.66 0.70 0.72 0.70 0.59 0.58 0.55 0.29 0.41 0.43 0.40 0.41 0.38 0.23 0.24 0.32 0.28 0.27 0.23 0.22 0.25 0.23 0.27 0.33 0.35 0.32 0.31 0.26 0.26 0.29 0.35 0.32 0.33 0.33 0.41 0.45 0.47 0.51 0.52 0.57 0.59 0.66
0.64 0.67 0.72 0.75 0.73 0.72 0.64 0.58 0.78 0.65 0.39 0.35 0.38 0.36 0.36 0.35 0.24 0.24 0.30 0.29 0.25 0.25 0.26 0.24 0.27 0.33 0.36 0.34 0.31 0.30 0.27 0.28 0.28 0.34 0.37 0.33 0.33 0.40 0.47 0.54 0.58 0.61 0.65 0.67 0.69
0.64 0.70 0.76 0.74 0.65 0.67 0.58 0.72 0.80 0.68 0.28 0.26 0.29 0.33 0.37 0.34 0.25 0.36 0.42 0.39 0.34 0.28 0.28 0.31 0.35 0.31 0.31 0.29 0.32 0.27 0.35 0.32 0.31 0.29 0.23 0.33 0.23 0.37 0.44 0.48 0.53 0.57 0.61 0.65 0.67
0.69 0.74 0.74 0.75 0.71 0.63 0.77 0.81 0.78 0.60 0.12 0.25 0.27 0.40 0.38 0.32 0.27 0.33 0.49 0.44 0.33 0.33 0.33 0.31 0.33 0.31 0.28 0.26 0.30 0.28 0.34 0.32 0.33 0.29 0.28 0.28 0.24 0.32 0.44 0.42 0.48 0.55 0.61 0.63 0.68
0.74 0.78 0.74 0.76 0.78 0.82 0.87 0.68 0.56 0.29 0.13 0.21 0.28 0.26 0.29 0.30 0.27 0.30 0.38 0.45 0.42 0.35 0.36 0.34 0.38 0.35 0.32 0.34 0.33 0.35 0.33 0.33 0.32 0.28 0.20 0.27 0.26 0.29 0.36 0.43 0.50 0.57 0.62 0.65 0.67
0.73 0.75 0.71 0.88 0.70 0.90 0.76 0.47 0.26 0.25 0.27 0.19 0.20 0.22 0.27 0.24 0.25 0.21 0.29 0.32 0.29 0.24 0.24 0.28 0.27 0.33 0.36 0.28 0.32 0.29 0.26 0.20 0.18 0.18 0.19 0.33 0.30 0.33 0.44 0.50 0.53 0.55 0.59 0.63 0.65
0.73 0.76 0.76 0.84 0.94 0.78 0.58 0.34 0.24 0.26 0.23 0.23 0.20 0.22 0.21 0.25 0.26 0.24 0.26 0.25 0.33 0.31 0.26 0.24 0.17 0.28 0.36 0.33 0.26 0.27 0.27 0.20 0.15 0.17 0.22 0.34 0.27 0.35 0.49 0.54 0.56 0.57 0.58 0.63 0.69
0.75 0.74 0.73 0.73 0.84 0.67 0.43 0.26 0.29 0.27 0.27 0.22 0.27 0.24 0.26 0.31 0.29 0.28 0.24 0.26 0.34 0.37 0.29 0.27 0.24 0.28 0.36 0.37 0.33 0.23 0.18 0.29 0.22 0.27 0.23 0.27 0.33 0.42 0.47 0.48 0.53 0.53 0.58 0.62 0.62
0.60 0.61 0.55 0.75 0.66 0.53 0.36 0.39 0.38 0.37 0.32 0.30 0.22 0.28 0.23 0.29 0.29 0.31 0.31 0.34 0.33 0.41 0.44 0.38 0.22 0.28 0.32 0.34 0.33 0.26 0.28 0.16 0.17 0.11 0.11 0.20 0.23 0.25 0.35 0.42 0.46 0.49 0.52 0.53 0.58
0.58 0.39 0.54 0.73 0.52 0.40 0.26 0.41 0.40 0.40 0.37 0.28 0.27 0.28 0.32 0.28 0.33 0.31 0.33 0.36 0.35 0.40 0.45 0.40 0.26 0.26 0.32 0.27 0.23 0.24 0.18 0.19 0.20 0.18 0.11 0.12 0.18 0.34 0.37 0.40 0.42 0.46 0.49 0.53 0.58
0.50 0.29 0.69 0.56 0.29 0.33 0.32 0.47 0.47 0.36 0.39 0.34 0.36 0.34 0.36 0.36 0.32 0.32 0.30 0.33 0.42 0.40 0.34 0.39 0.30 0.21 0.23 0.29 0.30 0.26 0.21 0.19 0.12 0.14 0.19 0.18 0.16 0.35 0.38 0.41 0.45 0.48 0.52 0.58 0.62
0.39 0.46 0.75 0.49 0.21 0.22 0.38 0.44 0.42 0.35 0.34 0.34 0.34 0.41 0.45 0.40 0.34 0.40 0.39 0.48 0.41 0.35 0.32 0.34 0.24 0.17 0.20 0.23 0.27 0.23 0.25 0.24 0.22 0.21 0.17 0.15 0.15 0.37 0.40 0.43 0.48 0.48 0.53 0.56 0.60
0.42 0.34 0.47 0.47 0.32 0.22 0.31 0.38 0.35 0.42 0.37 0.39 0.37 0.44 0.44 0.42 0.46 0.39 0.40 0.43 0.37 0.37 0.41 0.39 0.25 0.17 0.13 0.17 0.22 0.18 0.22 0.25 0.22 0.16 0.17 0.17 0.20 0.31 0.36 0.40 0.46 0.51 0.54 0.57 0.59
0.48 0.39 0.38 0.27 0.26 0.27 0.35 0.41 0.34 0.32 0.38 0.37 0.34 0.38 0.39 0.36 0.38 0.37 0.41 0.36 0.32 0.34 0.37 0.31 0.18 0.22 0.21 0.22 0.20 0.20 0.20 0.22 0.20 0.22 0.17 0.19 0.22 0.30 0.38 0.43 0.48 0.52 0.55 0.57 0.57
0.46 0.42 0.41 0.28 0.26 0.31 0.38 0.40 0.35 0.35 0.34 0.27 0.26 0.35 0.40 0.35 0.36 0.34 0.37 0.31 0.24 0.28 0.29 0.32 0.19 0.21 0.18 0.22 0.20 0.17 0.20 0.21 0.22 0.22 0.22 0.23 0.23 0.37 0.44 0.50 0.50 0.53 0.55 0.54 0.54
0.70 0.72 0.42 0.37 0.22 0.27 0.36 0.40 0.36 0.39 0.40 0.38 0.35 0.36 0.36 0.44 0.49 0.49 0.46 0.42 0.37 0.26 0.24 0.23 0.21 0.16 0.11 0.20 0.20 0.13 0.15 0.19 0.20 0.24 0.24 0.19 0.27 0.39 0.42 0.46 0.50 0.52 0.53 0.53 0.54

GFSSW_prec_pwat_006.txt.gz
Precipitable_Water
0.75 0.78 0.79 0.76 0.71 0.70 0.70 0.70 0.68 0.66 0.63 0.58 0.56 0.56 0.52 0.54 0.54 0.49 0.35 0.36 0.40 0.51 0.41 0.36 0.34 0.35 0.36 0.34 0.42 0.39 0.30 0.36 0.48 0.55 0.56 0.68 0.73 0.81 0.84 0.77 0.77 0.76 0.73 0.75 0.98
0.75 0.79 0.78 0.75 0.74 0.73 0.73 0.71 0.68 0.65 0.61 0.58 0.58 0.56 0.57 0.60 0.48 0.38 0.39 0.41 0.47 0.49 0.32 0.29 0.31 0.36 0.28 0.35 0.42 0.36 0.33 0.42 0.53 0.59 0.63 0.69 0.59 0.72 0.69 0.66 0.68 0.67 0.83 0.92 0.91
0.75 0.79 0.75 0.72 0.72 0.75 0.76 0.73 0.69 0.65 0.60 0.57 0.58 0.55 0.64 0.64 0.39 0.32 0.39 0.45 0.47 0.41 0.39 0.37 0.34 0.33 0.31 0.40 0.39 0.37 0.32 0.39 0.46 0.54 0.58 0.56 0.62 0.68 0.56 0.50 0.53 0.50 0.68 0.82 0.79
0.75 0.77 0.71 0.69 0.72 0.76 0.75 0.72 0.68 0.64 0.58 0.56 0.54 0.61 0.67 0.57 0.27 0.45 0.55 0.50 0.44 0.46 0.40 0.35 0.33 0.31 0.34 0.33 0.37 0.31 0.36 0.37 0.47 0.55 0.51 0.52 0.51 0.48 0.43 0.41 0.51 0.54 0.62 0.68 0.64
0.76 0.73 0.67 0.69 0.74 0.77 0.73 0.70 0.66 0.62 0.58 0.58 0.59 0.66 0.61 0.44 0.37 0.51 0.53 0.54 0.51 0.44 0.39 0.35 0.37 0.36 0.34 0.36 0.34 0.31 0.32 0.33 0.39 0.45 0.46 0.43 0.32 0.34 0.29 0.45 0.53 0.59 0.65 0.65 0.67
0.72 0.68 0.67 0.71 0.76 0.77 0.72 0.68 0.62 0.57 0.55 0.58 0.65 0.70 0.53 0.35 0.50 0.55 0.54 0.54 0.49 0.45 0.43 0.43 0.39 0.41 0.38 0.35 0.33 0.32 0.27 0.28 0.34 0.35 0.30 0.24 0.23 0.20 0.25 0.49 0.48 0.50 0.56 0.64 0.70
0.69 0.67 0.69 0.73 0.75 0.74 0.71 0.66 0.61 0.56 0.57 0.62 0.71 0.70 0.52 0.41 0.52 0.55 0.53 0.50 0.52 0.47 0.45 0.48 0.46 0.41 0.41 0.34 0.32 0.27 0.24 0.23 0.22 0.23 0.21 0.19 0.14 0.17 0.32 0.47 0.43 0.49 0.58 0.65 0.71
0.68 0.69 0.70 0.71 0.71 0.71 0.67 0.63 0.59 0.57 0.64 0.70 0.78 0.70 0.40 0.50 0.56 0.53 0.49 0.45 0.51 0.50 0.47 0.49 0.49 0.43 0.39 0.33 0.27 0.24 0.20 0.14 0.20 0.20 0.19 0.16 0.14 0.23 0.46 0.44 0.44 0.50 0.56 0.61 0.69
0.69 0.70 0.71 0.69 0.69 0.67 0.63 0.59 0.60 0.64 0.69 0.81 0.72 0.58 0.38 0.47 0.44 0.45 0.46 0.43 0.45 0.47 0.49 0.49 0.45 0.34 0.31 0.25 0.23 0.23 0.18 0.18 0.16 0.21 0.20 0.21 0.24 0.32 0.42 0.50 0.44 0.52 0.57 0.62 0.66
0.69 0.71 0.68 0.68 0.67 0.63 0.61 0.64 0.67 0.70 0.73 0.80 0.73 0.45 0.42 0.34 0.40 0.42 0.45 0.44 0.43 0.41 0.38 0.40 0.36 0.28 0.27 0.24 0.18 0.17 0.17 0.22 0.22 0.25 0.28 0.26 0.28 0.36 0.37 0.49 0.48 0.54 0.59 0.64 0.69
0.72 0.71 0.68 0.66 0.65 0.63 0.64 0.63 0.50 0.45 0.52 0.36 0.38 0.38 0.40 0.45 0.40 0.38 0.41 0.41 0.43 0.35 0.31 0.36 0.29 0.26 0.28 0.27 0.24 0.21 0.21 0.22 0.25 0.29 0.30 0.33 0.33 0.37 0.41 0.43 0.47 0.52 0.59 0.63 0.69
0.72 0.68 0.66 0.63 0.67 0.72 0.73 0.60 0.58 0.60 0.33 0.42 0.45 0.44 0.44 0.44 0.27 0.34 0.41 0.35 0.34 0.28 0.33 0.29 0.26 0.31 0.34 0.31 0.27 0.25 0.24 0.26 0.31 0.34 0.31 0.35 0.34 0.39 0.41 0.41 0.45 0.47 0.53 0.59 0.64
0.69 0.65 0.65 0.68 0.75 0.79 0.68 0.60 0.76 0.70 0.38 0.36 0.41 0.39 0.38 0.38 0.25 0.27 0.33 0.36 0.33 0.29 0.26 0.21 0.28 0.34 0.32 0.27 0.29 0.30 0.24 0.26 0.28 0.34 0.38 0.35 0.31 0.36 0.44 0.49 0.55 0.58 0.63 0.67 0.67
0.65 0.64 0.71 0.78 0.72 0.71 0.55 0.66 0.82 0.72 0.26 0.28 0.31 0.35 0.37 0.34 0.25 0.34 0.37 0.37 0.33 0.28 0.29 0.28 0.34 0.31 0.29 0.30 0.35 0.29 0.35 0.32 0.32 0.30 0.25 0.35 0.21 0.34 0.42 0.46 0.52 0.59 0.63 0.64 0.64
0.62 0.68 0.77 0.76 0.73 0.67 0.73 0.81 0.75 0.56 0.14 0.26 0.29 0.40 0.38 0.31 0.27 0.31 0.46 0.37 0.26 0.26 0.27 0.25 0.30 0.29 0.28 0.28 0.30 0.29 0.36 0.34 0.33 0.30 0.29 0.29 0.26 0.30 0.42 0.40 0.47 0.56 0.60 0.62 0.61
0.63 0.75 0.81 0.83 0.79 0.84 0.82 0.70 0.55 0.28 0.13 0.21 0.30 0.30 0.32 0.32 0.28 0.36 0.41 0.44 0.42 0.35 0.34 0.31 0.40 0.36 0.32 0.34 0.33 0.34 0.34 0.34 0.33 0.30 0.21 0.26 0.25 0.25 0.32 0.38 0.47 0.55 0.59 0.62 0.61
0.69 0.81 0.76 0.86 0.70 0.91 0.75 0.48 0.27 0.22 0.26 0.21 0.22 0.27 0.28 0.27 0.28 0.32 0.34 0.32 0.29 0.25 0.26 0.30 0.31 0.35 0.37 0.30 0.32 0.31 0.28 0.19 0.19 0.18 0.16 0.28 0.25 0.26 0.38 0.46 0.51 0.53 0.58 0.62 0.63
0.75 0.83 0.76 0.91 0.92 0.80 0.58 0.33 0.21 0.31 0.20 0.24 0.22 0.23 0.23 0.25 0.23 0.25 0.29 0.27 0.34 0.31 0.27 0.22 0.18 0.27 0.34 0.30 0.26 0.26 0.27 0.20 0.14 0.14 0.18 0.30 0.23 0.29 0.43 0.50 0.55 0.57 0.59 0.61 0.62
0.78 0.76 0.76 0.83 0.86 0.72 0.43 0.24 0.29 0.28 0.28 0.20 0.21 0.18 0.22 0.26 0.24 0.23 0.25 0.26 0.30 0.30 0.24 0.24 0.21 0.30 0.36 0.39 0.35 0.26 0.22 0.32 0.24 0.28 0.22 0.25 0.30 0.39 0.45 0.45 0.48 0.50 0.53 0.56 0.62
0.67 0.67 0.61 0.81 0.73 0.56 0.35 0.28 0.41 0.41 0.33 0.26 0.17 0.23 0.21 0.26 0.25 0.23 0.23 0.30 0.30 0.38 0.41 0.33 0.24 0.28 0.35 0.39 0.36 0.29 0.30 0.17 0.18 0.10 0.10 0.17 0.20 0.21 0.29 0.34 0.42 0.45 0.49 0.55 0.59
0.70 0.46 0.60 0.78 0.56 0.42 0.28 0.30 0.44 0.45 0.37 0.28 0.26 0.27 0.28 0.28 0.31 0.29 0.30 0.35 0.36 0.36 0.43 0.40 0.32 0.25 0.30 0.26 0.25 0.24 0.19 0.18 0.18 0.17 0.10 0.10 0.14 0.29 0.31 0.38 0.40 0.45 0.50 0.55 0.58
0.55 0.32 0.73 0.58 0.33 0.36 0.31 0.40 0.52 0.38 0.42 0.37 0.35 0.32 0.34 0.38 0.34 0.33 0.32 0.35 0.41 0.39 0.35 0.44 0.33 0.25 0.23 0.33 0.33 0.28 0.21 0.18 0.10 0.11 0.16 0.15 0.12 0.31 0.34 0.40 0.43 0.45 0.50 0.55 0.57
0.41 0.46 0.75 0.50 0.24 0.25 0.35 0.41 0.48 0.37 0.37 0.36 0.33 0.38 0.44 0.41 0.35 0.38 0.39 0.45 0.43 0.35 0.34 0.39 0.30 0.21 0.20 0.24 0.27 0.21 0.24 0.22 0.20 0.20 0.14 0.12 0.11 0.31 0.33 0.35 0.43 0.45 0.50 0.54 0.56
0.45 0.32 0.50 0.47 0.35 0.25 0.29 0.35 0.38 0.44 0.39 0.39 0.37 0.39 0.42 0.41 0.45 0.39 0.42 0.45 0.45 0.41 0.40 0.40 0.28 0.20 0.13 0.16 0.21 0.19 0.21 0.22 0.20 0.14 0.14 0.14 0.15 0.24 0.30 0.34 0.40 0.45 0.50 0.54 0.57
0.44 0.36 0.42 0.29 0.28 0.25 0.31 0.38 0.36 0.34 0.40 0.40 0.36 0.35 0.38 0.37 0.39 0.39 0.43 0.39 0.41 0.42 0.38 0.34 0.22 0.24 0.23 0.22 0.21 0.18 0.17 0.21 0.18 0.19 0.15 0.16 0.17 0.22 0.30 0.35 0.41 0.48 0.51 0.54 0.56
0.38 0.36 0.41 0.33 0.30 0.26 0.30 0.30 0.36 0.37 0.36 0.29 0.31 0.35 0.37 0.35 0.38 0.34 0.38 0.37 0.29 0.35 0.31 0.34 0.20 0.22 0.19 0.23 0.21 0.17 0.19 0.19 0.19 0.20 0.20 0.21 0.18 0.30 0.35 0.41 0.43 0.46 0.49 0.52 0.55
0.59 0.54 0.44 0.30 0.30 0.25 0.27 0.33 0.38 0.41 0.41 0.39 0.34 0.30 0.31 0.39 0.49 0.48 0.46 0.42 0.36 0.29 0.22 0.22 0.21 0.17 0.13 0.20 0.18 0.12 0.13 0.16 0.17 0.20 0.19 0.15 0.20 0.31 0.31 0.35 0.40 0.45 0.49 0.52 0.54

GFSSW_prec_pwat_009.txt.gz
Precipitable_Water
0.70 0.70 0.70 0.74 0.77 0.76 0.72 0.71 0.69 0.67 0.67 0.65 0.61 0.59 0.59 0.53 0.53 0.48 0.29 0.32 0.38 0.47 0.46 0.39 0.39 0.35 0.38 0.32 0.34 0.41 0.31 0.32 0.43 0.53 0.66 0.76 0.74 0.84 0.90 0.84 0.91 0.86 0.83 0.89 1.14
0.69 0.70 0.71 0.76 0.77 0.73 0.70 0.70 0.72 0.68 0.66 0.63 0.58 0.60 0.58 0.57 0.48 0.36 0.38 0.45 0.46 0.53 0.38 0.29 0.27 0.34 0.30 0.30 0.31 0.34 0.32 0.35 0.52 0.64 0.71 0.73 0.63 0.74 0.80 0.78 0.77 0.81 0.92 0.99 0.96
0.70 0.71 0.74 0.75 0.74 0.70 0.70 0.73 0.72 0.68 0.66 0.61 0.57 0.60 0.56 0.64 0.42 0.35 0.42 0.42 0.48 0.51 0.37 0.33 0.36 0.35 0.28 0.30 0.34 0.38 0.31 0.44 0.53 0.62 0.68 0.56 0.56 0.72 0.72 0.57 0.56 0.55 0.72 0.81 0.80
0.69 0.73 0.75 0.73 0.70 0.67 0.71 0.73 0.71 0.68 0.64 0.58 0.57 0.58 0.62 0.58 0.26 0.45 0.56 0.49 0.51 0.39 0.35 0.33 0.32 0.27 0.26 0.32 0.38 0.34 0.39 0.47 0.49 0.58 0.63 0.52 0.57 0.65 0.57 0.45 0.55 0.64 0.71 0.69 0.70
0.70 0.74 0.73 0.68 0.66 0.69 0.75 0.73 0.69 0.66 0.62 0.58 0.57 0.61 0.59 0.42 0.37 0.51 0.55 0.51 0.45 0.39 0.33 0.30 0.28 0.29 0.28 0.34 0.37 0.35 0.37 0.37 0.47 0.50 0.53 0.56 0.56 0.46 0.41 0.48 0.58 0.68 0.71 0.70 0.76
0.71 0.74 0.71 0.66 0.68 0.73 0.76 0.73 0.68 0.63 0.57 0.56 0.57 0.67 0.53 0.34 0.52 0.58 0.57 0.54 0.45 0.41 0.42 0.42 0.38 0.40 0.37 0.35 0.33 0.34 0.31 0.31 0.37 0.46 0.49 0.47 0.32 0.33 0.37 0.54 0.55 0.66 0.70 0.79 0.81
0.73 0.75 0.69 0.67 0.70 0.74 0.74 0.71 0.66 0.60 0.56 0.56 0.63 0.67 0.50 0.40 0.52 0.57 0.56 0.51 0.52 0.49 0.43 0.48 0.43 0.40 0.41 0.35 0.34 0.30 0.26 0.26 0.32 0.37 0.35 0.29 0.20 0.22 0.42 0.55 0.52 0.67 0.72 0.78 0.78
0.75 0.74 0.68 0.69 0.71 0.72 0.70 0.66 0.63 0.59 0.58 0.62 0.71 0.66 0.40 0.51 0.55 0.55 0.53 0.50 0.56 0.55 0.51 0.53 0.52 0.45 0.42 0.38 0.32 0.27 0.25 0.20 0.23 0.26 0.26 0.20 0.16 0.28 0.45 0.52 0.49 0.58 0.66 0.69 0.72
0.75 0.73 0.69 0.70 0.70 0.70 0.67 0.62 0.59 0.59 0.62 0.72 0.69 0.63 0.38 0.49 0.45 0.49 0.47 0.44 0.49 0.53 0.53 0.52 0.48 0.41 0.37 0.27 0.24 0.25 0.17 0.16 0.18 0.25 0.20 0.20 0.22 0.32 0.47 0.50 0.49 0.53 0.58 0.62 0.68
0.74 0.70 0.70 0.71 0.69 0.68 0.62 0.60 0.62 0.64 0.67 0.76 0.75 0.47 0.43 0.36 0.47 0.45 0.45 0.46 0.45 0.47 0.45 0.44 0.38 0.30 0.29 0.25 0.20 0.20 0.21 0.21 0.18 0.22 0.25 0.23 0.28 0.37 0.43 0.51 0.51 0.53 0.59 0.63 0.66
0.73 0.70 0.71 0.71 0.67 0.63 0.57 0.56 0.46 0.43 0.53 0.41 0.42 0.41 0.41 0.46 0.46 0.40 0.43 0.44 0.45 0.39 0.35 0.42 0.30 0.25 0.25 0.25 0.24 0.22 0.19 0.23 0.25 0.33 0.30 0.32 0.31 0.35 0.39 0.46 0.50 0.55 0.60 0.65 0.70
0.71 0.73 0.71 0.69 0.64 0.62 0.63 0.52 0.53 0.60 0.35 0.48 0.48 0.43 0.47 0.47 0.33 0.36 0.45 0.39 0.37 0.30 0.35 0.32 0.26 0.32 0.33 0.31 0.28 0.26 0.22 0.24 0.31 0.34 0.30 0.32 0.33 0.40 0.40 0.41 0.47 0.52 0.57 0.63 0.69
0.71 0.71 0.69 0.65 0.64 0.65 0.63 0.63 0.77 0.73 0.37 0.39 0.46 0.42 0.39 0.43 0.30 0.30 0.39 0.38 0.35 0.30 0.30 0.28 0.31 0.37 0.34 0.33 0.29 0.26 0.25 0.26 0.28 0.35 0.36 0.32 0.29 0.35 0.41 0.45 0.49 0.54 0.59 0.64 0.67
0.69 0.68 0.68 0.66 0.61 0.70 0.60 0.69 0.76 0.79 0.27 0.29 0.33 0.37 0.41 0.38 0.26 0.37 0.40 0.37 0.37 0.32 0.32 0.29 0.32 0.34 0.34 0.31 0.32 0.24 0.33 0.30 0.32 0.30 0.24 0.33 0.20 0.32 0.39 0.41 0.48 0.54 0.61 0.66 0.70
0.67 0.66 0.70 0.70 0.74 0.59 0.75 0.93 0.81 0.61 0.14 0.28 0.31 0.44 0.42 0.31 0.28 0.31 0.44 0.40 0.34 0.33 0.34 0.29 0.29 0.28 0.29 0.31 0.32 0.29 0.38 0.36 0.32 0.27 0.27 0.29 0.24 0.28 0.41 0.38 0.44 0.54 0.60 0.63 0.63
0.68 0.66 0.76 0.76 0.80 0.76 0.86 0.82 0.59 0.24 0.15 0.23 0.29 0.30 0.32 0.31 0.28 0.38 0.39 0.42 0.43 0.35 0.34 0.30 0.36 0.35 0.32 0.35 0.37 0.36 0.31 0.34 0.33 0.29 0.20 0.25 0.25 0.23 0.30 0.34 0.46 0.54 0.58 0.60 0.59
0.68 0.69 0.74 0.85 0.68 0.98 0.85 0.52 0.23 0.18 0.28 0.21 0.23 0.29 0.31 0.26 0.26 0.33 0.32 0.31 0.26 0.22 0.23 0.28 0.31 0.36 0.38 0.31 0.36 0.32 0.27 0.19 0.18 0.18 0.16 0.28 0.24 0.23 0.32 0.41 0.49 0.52 0.56 0.58 0.61
0.70 0.75 0.81 0.85 0.93 0.88 0.57 0.30 0.18 0.28 0.22 0.28 0.26 0.29 0.28 0.30 0.27 0.31 0.31 0.28 0.34 0.31 0.27 0.22 0.19 0.27 0.35 0.30 0.25 0.26 0.27 0.20 0.13 0.14 0.17 0.28 0.20 0.24 0.38 0.45 0.53 0.56 0.58 0.58 0.59
0.74 0.74 0.79 0.83 0.87 0.79 0.41 0.23 0.24 0.33 0.28 0.23 0.24 0.22 0.24 0.27 0.25 0.27 0.29 0.29 0.31 0.33 0.23 0.22 0.21 0.31 0.33 0.36 0.32 0.25 0.22 0.31 0.23 0.25 0.20 0.24 0.27 0.35 0.41 0.43 0.49 0.51 0.52 0.55 0.58
0.62 0.66 0.68 0.97 0.92 0.59 0.35 0.26 0.33 0.43 0.36 0.26 0.17 0.20 0.17 0.22 0.21 0.20 0.22 0.31 0.29 0.34 0.35 0.28 0.20 0.30 0.33 0.38 0.39 0.31 0.31 0.22 0.23 0.13 0.11 0.15 0.17 0.17 0.27 0.32 0.39 0.42 0.47 0.53 0.58
0.64 0.55 0.72 0.91 0.67 0.43 0.29 0.28 0.41 0.49 0.40 0.24 0.20 0.20 0.23 0.23 0.27 0.22 0.22 0.29 0.34 0.33 0.38 0.34 0.30 0.30 0.30 0.28 0.27 0.27 0.22 0.19 0.19 0.17 0.09 0.08 0.10 0.25 0.26 0.31 0.34 0.41 0.47 0.52 0.56
0.61 0.45 0.78 0.68 0.37 0.37 0.32 0.36 0.50 0.42 0.41 0.35 0.30 0.32 0.30 0.32 0.30 0.29 0.28 0.33 0.43 0.39 0.29 0.38 0.35 0.27 0.26 0.32 0.34 0.30 0.22 0.19 0.11 0.10 0.15 0.14 0.10 0.26 0.29 0.33 0.38 0.42 0.47 0.53 0.58
0.54 0.57 0.79 0.53 0.26 0.28 0.35 0.38 0.43 0.39 0.38 0.35 0.32 0.34 0.40 0.39 0.35 0.37 0.35 0.44 0.43 0.36 0.31 0.38 0.34 0.25 0.24 0.27 0.30 0.24 0.23 0.20 0.19 0.18 0.12 0.11 0.10 0.26 0.29 0.31 0.38 0.41 0.47 0.53 0.56
0.59 0.40 0.55 0.46 0.37 0.29 0.30 0.33 0.38 0.46 0.41 0.41 0.38 0.39 0.40 0.40 0.45 0.40 0.39 0.45 0.46 0.44 0.40 0.40 0.33 0.27 0.18 0.19 0.21 0.19 0.21 0.22 0.19 0.12 0.12 0.13 0.13 0.18 0.25 0.27 0.32 0.39 0.46 0.50 0.53
0.55 0.41 0.46 0.32 0.29 0.28 0.31 0.33 0.38 0.36 0.43 0.41 0.36 0.36 0.32 0.37 0.39 0.39 0.45 0.44 0.47 0.48 0.42 0.33 0.24 0.27 0.26 0.25 0.23 0.19 0.20 0.20 0.16 0.16 0.12 0.12 0.14 0.17 0.23 0.28 0.34 0.41 0.45 0.47 0.50
0.45 0.39 0.43 0.35 0.34 0.28 0.29 0.32 0.39 0.40 0.39 0.32 0.32 0.37 0.37 0.34 0.41 0.39 0.42 0.38 0.33 0.42 0.36 0.34 0.23 0.26 0.23 0.25 0.22 0.17 0.18 0.18 0.19 0.19 0.18 0.18 0.15 0.24 0.29 0.33 0.35 0.38 0.42 0.44 0.49
0.65 0.54 0.36 0.35 0.33 0.27 0.26 0.28 0.40 0.44 0.44 0.40 0.33 0.36 0.35 0.36 0.45 0.48 0.46 0.43 0.39 0.33 0.29 0.27 0.23 0.20 0.14 0.21 0.20 0.14 0.14 0.16 0.17 0.19 0.19 0.14 0.16 0.25 0.25 0.30 0.33 0.38 0.42 0.45 0.49

GFSSW_prec_pwat_015.txt.gz
Precipitable_Water
0.64 0.67 0.66 0.68 0.68 0.69 0.66 0.67 0.69 0.67 0.66 0.66 0.65 0.63 0.57 0.55 0.54 0.48 0.35 0.38 0.35 0.35 0.45 0.44 0.39 0.43 0.40 0.34 0.32 0.37 0.27 0.25 0.33 0.50 0.65 0.66 0.56 0.67 0.69 0.77 0.96 1.08 1.05 0.98 1.21
0.65 0.67 0.68 0.68 0.68 0.69 0.68 0.67 0.66 0.65 0.67 0.66 0.64 0.62 0.54 0.55 0.45 0.40 0.48 0.47 0.40 0.38 0.40 0.38 0.37 0.37 0.32 0.32 0.32 0.28 0.24 0.29 0.53 0.67 0.73 0.66 0.68 0.70 0.67 0.72 0.82 0.96 1.04 1.05 1.21
0.65 0.67 0.68 0.69 0.69 0.69 0.70 0.66 0.63 0.67 0.69 0.66 0.63 0.57 0.53 0.57 0.46 0.51 0.52 0.47 0.41 0.43 0.46 0.40 0.40 0.33 0.30 0.32 0.33 0.27 0.32 0.46 0.66 0.64 0.65 0.66 0.65 0.71 0.69 0.72 0.78 0.91 0.91 0.98 1.18
0.68 0.66 0.70 0.70 0.70 0.69 0.69 0.64 0.63 0.70 0.69 0.64 0.60 0.54 0.53 0.55 0.39 0.54 0.57 0.43 0.41 0.48 0.45 0.38 0.34 0.30 0.31 0.29 0.31 0.33 0.37 0.44 0.60 0.54 0.51 0.52 0.60 0.68 0.86 0.73 1.04 0.92 0.97 0.91 0.96
0.71 0.68 0.71 0.71 0.72 0.69 0.69 0.62 0.65 0.70 0.67 0.62 0.57 0.52 0.50 0.46 0.47 0.59 0.49 0.51 0.45 0.46 0.38 0.33 0.33 0.33 0.29 0.28 0.31 0.38 0.42 0.47 0.57 0.62 0.60 0.64 0.68 0.69 0.64 0.74 0.83 0.96 0.82 0.82 0.85
0.73 0.69 0.73 0.72 0.71 0.70 0.68 0.62 0.67 0.68 0.64 0.59 0.54 0.52 0.49 0.41 0.55 0.62 0.49 0.42 0.44 0.41 0.35 0.37 0.35 0.34 0.29 0.34 0.37 0.40 0.43 0.42 0.49 0.54 0.57 0.60 0.55 0.52 0.55 0.73 0.77 0.73 0.69 0.72 0.76
0.73 0.71 0.74 0.73 0.72 0.71 0.66 0.64 0.67 0.66 0.61 0.55 0.51 0.52 0.45 0.48 0.55 0.63 0.52 0.47 0.50 0.46 0.41 0.44 0.43 0.37 0.42 0.40 0.44 0.38 0.37 0.43 0.48 0.50 0.52 0.67 0.34 0.43 0.52 0.73 0.69 0.73 0.76 0.78 0.80
0.73 0.72 0.74 0.73 0.72 0.71 0.64 0.64 0.65 0.62 0.57 0.54 0.55 0.57 0.44 0.60 0.58 0.56 0.61 0.56 0.58 0.52 0.49 0.52 0.49 0.44 0.44 0.46 0.37 0.34 0.32 0.34 0.41 0.48 0.49 0.42 0.28 0.34 0.51 0.70 0.71 0.78 0.81 0.84 0.83
0.72 0.72 0.74 0.73 0.71 0.70 0.64 0.64 0.62 0.58 0.54 0.56 0.55 0.58 0.49 0.55 0.47 0.48 0.54 0.51 0.55 0.55 0.54 0.52 0.49 0.43 0.44 0.37 0.30 0.29 0.27 0.29 0.32 0.39 0.41 0.32 0.29 0.34 0.51 0.65 0.70 0.74 0.79 0.80 0.78
0.72 0.72 0.74 0.74 0.71 0.69 0.64 0.61 0.58 0.54 0.55 0.58 0.60 0.52 0.49 0.41 0.50 0.45 0.53 0.54 0.52 0.51 0.49 0.48 0.46 0.42 0.40 0.34 0.25 0.27 0.25 0.26 0.27 0.31 0.29 0.24 0.31 0.34 0.48 0.53 0.65 0.71 0.75 0.74 0.73
0.71 0.74 0.75 0.74 0.72 0.68 0.60 0.52 0.40 0.37 0.42 0.37 0.44 0.49 0.47 0.47 0.51 0.43 0.48 0.48 0.52 0.50 0.43 0.46 0.39 0.35 0.36 0.37 0.33 0.30 0.25 0.22 0.25 0.25 0.23 0.24 0.32 0.30 0.46 0.52 0.54 0.61 0.69 0.71 0.74
0.71 0.75 0.77 0.74 0.73 0.67 0.61 0.42 0.55 0.74 0.43 0.38 0.46 0.48 0.50 0.46 0.40 0.38 0.49 0.43 0.44 0.39 0.47 0.41 0.38 0.39 0.37 0.33 0.29 0.27 0.26 0.27 0.29 0.25 0.29 0.26 0.31 0.36 0.42 0.48 0.54 0.57 0.61 0.65 0.74
0.71 0.77 0.78 0.76 0.72 0.60 0.47 0.44 0.73 0.75 0.48 0.44 0.47 0.46 0.44 0.41 0.36 0.39 0.44 0.45 0.43 0.40 0.43 0.43 0.38 0.36 0.34 0.29 0.28 0.29 0.24 0.34 0.29 0.31 0.29 0.34 0.36 0.35 0.39 0.46 0.54 0.60 0.66 0.70 0.75
0.72 0.79 0.80 0.76 0.55 0.52 0.44 0.59 0.72 0.71 0.39 0.36 0.40 0.42 0.41 0.37 0.35 0.45 0.45 0.44 0.38 0.40 0.39 0.44 0.44 0.36 0.32 0.33 0.34 0.32 0.35 0.36 0.29 0.30 0.25 0.28 0.22 0.38 0.35 0.36 0.41 0.47 0.57 0.66 0.71
0.73 0.83 0.80 0.71 0.65 0.47 0.75 0.85 0.82 0.74 0.24 0.38 0.38 0.49 0.41 0.32 0.33 0.37 0.45 0.42 0.37 0.38 0.38 0.41 0.34 0.35 0.33 0.42 0.34 0.43 0.40 0.30 0.29 0.27 0.40 0.31 0.22 0.37 0.49 0.35 0.38 0.48 0.54 0.60 0.69
0.75 0.85 0.82 0.68 0.58 0.72 0.88 1.01 0.85 0.37 0.24 0.30 0.34 0.30 0.33 0.35 0.34 0.37 0.35 0.43 0.48 0.40 0.40 0.46 0.41 0.37 0.42 0.35 0.38 0.37 0.33 0.31 0.30 0.32 0.25 0.25 0.32 0.30 0.45 0.41 0.43 0.49 0.58 0.64 0.69
0.77 0.85 0.77 0.68 0.55 0.86 1.00 0.78 0.38 0.23 0.34 0.24 0.24 0.30 0.33 0.30 0.32 0.34 0.29 0.33 0.31 0.30 0.33 0.36 0.35 0.39 0.38 0.33 0.34 0.31 0.31 0.25 0.22 0.23 0.21 0.34 0.27 0.25 0.38 0.51 0.49 0.49 0.53 0.62 0.66
0.79 0.85 0.77 0.69 0.86 0.98 0.94 0.53 0.29 0.25 0.29 0.28 0.23 0.28 0.30 0.32 0.30 0.30 0.28 0.27 0.34 0.41 0.37 0.29 0.30 0.33 0.36 0.33 0.35 0.31 0.32 0.26 0.21 0.20 0.20 0.34 0.22 0.24 0.35 0.38 0.39 0.56 0.59 0.63 0.61
0.83 0.81 0.69 0.68 0.87 0.95 0.69 0.35 0.30 0.24 0.32 0.23 0.24 0.24 0.28 0.31 0.30 0.31 0.31 0.30 0.33 0.33 0.33 0.29 0.34 0.43 0.37 0.37 0.32 0.33 0.26 0.33 0.30 0.29 0.20 0.18 0.23 0.34 0.37 0.34 0.40 0.53 0.57 0.57 0.58
0.72 0.68 0.54 0.79 0.86 0.88 0.53 0.32 0.34 0.39 0.36 0.26 0.19 0.24 0.25 0.27 0.23 0.26 0.31 0.41 0.38 0.36 0.35 0.34 0.29 0.34 0.35 0.35 0.34 0.30 0.39 0.24 0.22 0.17 0.16 0.20 0.22 0.20 0.32 0.28 0.36 0.48 0.51 0.54 0.58
0.74 0.53 0.53 0.83 0.88 0.67 0.37 0.30 0.36 0.42 0.38 0.26 0.22 0.24 0.30 0.29 0.27 0.26 0.32 0.40 0.39 0.37 0.37 0.33 0.28 0.35 0.34 0.27 0.28 0.32 0.23 0.24 0.29 0.31 0.20 0.13 0.17 0.28 0.18 0.29 0.32 0.41 0.50 0.52 0.53
0.69 0.42 0.85 0.87 0.54 0.55 0.41 0.36 0.40 0.44 0.46 0.33 0.34 0.28 0.28 0.31 0.28 0.28 0.26 0.31 0.40 0.38 0.25 0.29 0.30 0.30 0.30 0.38 0.35 0.36 0.34 0.33 0.20 0.20 0.19 0.19 0.13 0.24 0.22 0.25 0.32 0.36 0.46 0.51 0.55
0.60 0.57 1.00 0.78 0.45 0.47 0.46 0.38 0.40 0.43 0.39 0.34 0.27 0.31 0.29 0.27 0.25 0.28 0.31 0.43 0.39 0.33 0.29 0.33 0.24 0.25 0.27 0.30 0.33 0.24 0.27 0.29 0.27 0.25 0.16 0.15 0.15 0.28 0.25 0.24 0.27 0.33 0.41 0.47 0.52
0.61 0.47 0.70 0.70 0.68 0.53 0.41 0.37 0.36 0.49 0.44 0.40 0.31 0.37 0.33 0.35 0.38 0.37 0.38 0.40 0.42 0.43 0.41 0.37 0.27 0.27 0.24 0.32 0.35 0.30 0.26 0.28 0.24 0.17 0.15 0.16 0.17 0.21 0.24 0.25 0.27 0.30 0.36 0.46 0.50
0.62 0.49 0.56 0.44 0.51 0.54 0.44 0.38 0.30 0.36 0.46 0.44 0.38 0.32 0.32 0.32 0.37 0.39 0.47 0.43 0.44 0.45 0.40 0.38 0.27 0.29 0.32 0.36 0.35 0.29 0.27 0.26 0.22 0.20 0.17 0.18 0.16 0.17 0.21 0.23 0.26 0.31 0.34 0.39 0.46
0.55 0.51 0.60 0.59 0.53 0.52 0.42 0.33 0.32 0.38 0.41 0.37 0.35 0.33 0.38 0.37 0.39 0.39 0.47 0.46 0.42 0.47 0.45 0.43 0.31 0.31 0.25 0.30 0.31 0.27 0.26 0.23 0.23 0.22 0.20 0.19 0.19 0.22 0.27 0.29 0.28 0.31 0.34 0.35 0.42
0.80 0.73 0.61 0.63 0.53 0.45 0.40 0.36 0.36 0.44 0.50 0.49 0.39 0.42 0.38 0.47 0.53 0.57 0.59 0.56 0.53 0.49 0.46 0.42 0.35 0.28 0.21 0.28 0.26 0.20 0.21 0.22 0.22 0.24 0.22 0.18 0.22 0.30 0.32 0.30 0.29 0.32 0.37 0.36 0.41

GFSSW_prec_pwat_021.txt.gz
Precipitable_Water
0.72 0.72 0.71 0.69 0.66 0.68 0.67 0.67 0.66 0.64 0.63 0.59 0.60 0.62 0.56 0.54 0.49 0.41 0.31 0.37 0.42 0.46 0.39 0.33 0.37 0.35 0.45 0.39 0.41 0.36 0.27 0.23 0.27 0.47 0.58 0.74 0.74 0.89 0.92 0.81 0.77 0.88 0.95 1.10 1.21
0.75 0.74 0.74 0.71 0.67 0.69 0.69 0.68 0.67 0.65 0.62 0.59 0.62 0.61 0.55 0.52 0.39 0.50 0.59 0.56 0.48 0.44 0.27 0.26 0.34 0.32 0.33 0.36 0.39 0.32 0.26 0.27 0.47 0.59 0.58 0.67 0.69 0.79 0.84 0.86 0.79 0.80 1.10 1.29 1.27
0.78 0.76 0.77 0.74 0.71 0.69 0.70 0.69 0.67 0.64 0.61 0.59 0.61 0.58 0.53 0.49 0.53 0.51 0.56 0.53 0.47 0.42 0.30 0.41 0.43 0.37 0.32 0.37 0.37 0.32 0.29 0.38 0.50 0.65 0.71 0.68 0.67 0.73 0.71 0.76 0.86 0.81 0.91 1.26 1.33
0.80 0.78 0.80 0.77 0.73 0.71 0.71 0.70 0.68 0.64 0.60 0.59 0.60 0.54 0.50 0.46 0.28 0.57 0.51 0.48 0.46 0.43 0.41 0.41 0.39 0.35 0.33 0.29 0.34 0.31 0.34 0.38 0.58 0.71 0.74 0.71 0.75 0.71 0.74 0.80 0.92 0.91 1.00 1.24 1.26
0.84 0.80 0.80 0.80 0.74 0.73 0.72 0.71 0.68 0.63 0.59 0.58 0.58 0.52 0.42 0.34 0.36 0.64 0.52 0.49 0.43 0.37 0.40 0.43 0.38 0.35 0.32 0.34 0.35 0.34 0.35 0.54 0.58 0.58 0.72 0.74 0.64 0.61 0.62 0.79 1.03 1.09 1.08 1.11 1.11
0.91 0.83 0.82 0.80 0.76 0.75 0.73 0.71 0.68 0.62 0.58 0.59 0.56 0.51 0.39 0.31 0.63 0.67 0.47 0.39 0.32 0.36 0.40 0.46 0.40 0.38 0.35 0.34 0.32 0.34 0.38 0.55 0.63 0.67 0.66 0.56 0.60 0.69 0.65 0.82 0.92 0.93 0.96 0.90 0.84
1.01 0.88 0.82 0.80 0.77 0.77 0.74 0.71 0.66 0.61 0.58 0.58 0.56 0.48 0.33 0.33 0.61 0.57 0.56 0.39 0.44 0.39 0.38 0.44 0.45 0.43 0.40 0.38 0.44 0.39 0.41 0.41 0.58 0.62 0.59 0.60 0.53 0.57 0.66 0.71 0.68 0.84 0.82 0.77 0.73
1.09 0.92 0.83 0.80 0.77 0.77 0.75 0.71 0.64 0.59 0.56 0.56 0.55 0.48 0.26 0.53 0.59 0.54 0.55 0.50 0.54 0.51 0.48 0.49 0.54 0.45 0.41 0.45 0.39 0.35 0.37 0.35 0.45 0.54 0.61 0.55 0.41 0.60 0.72 0.69 0.64 0.70 0.63 0.74 0.79
1.09 0.96 0.85 0.80 0.78 0.77 0.76 0.71 0.63 0.57 0.54 0.54 0.49 0.52 0.30 0.62 0.46 0.49 0.56 0.55 0.57 0.56 0.50 0.50 0.45 0.39 0.43 0.40 0.34 0.34 0.29 0.34 0.39 0.48 0.51 0.48 0.43 0.60 0.82 0.76 0.75 0.71 0.67 0.69 0.70
1.05 0.98 0.85 0.79 0.77 0.77 0.77 0.69 0.60 0.53 0.54 0.52 0.47 0.36 0.39 0.33 0.46 0.46 0.51 0.57 0.53 0.52 0.47 0.43 0.37 0.37 0.41 0.37 0.29 0.30 0.31 0.33 0.33 0.37 0.44 0.39 0.38 0.57 0.68 0.66 0.60 0.79 0.77 0.76 0.64
0.98 1.00 0.84 0.77 0.75 0.79 0.75 0.60 0.56 0.56 0.54 0.25 0.33 0.36 0.41 0.49 0.52 0.43 0.49 0.50 0.52 0.52 0.40 0.40 0.35 0.35 0.39 0.43 0.41 0.37 0.33 0.32 0.33 0.38 0.31 0.34 0.35 0.43 0.56 0.53 0.59 0.65 0.75 0.68 0.68
0.98 0.99 0.86 0.75 0.76 0.81 0.75 0.46 0.59 0.61 0.42 0.50 0.43 0.42 0.46 0.53 0.39 0.40 0.49 0.42 0.46 0.41 0.47 0.41 0.36 0.44 0.44 0.45 0.41 0.37 0.34 0.31 0.32 0.34 0.26 0.32 0.33 0.35 0.47 0.49 0.64 0.66 0.69 0.63 0.74
0.98 0.98 0.89 0.74 0.77 0.76 0.64 0.48 0.64 0.66 0.40 0.36 0.37 0.38 0.41 0.47 0.34 0.36 0.43 0.41 0.46 0.45 0.42 0.37 0.39 0.48 0.45 0.41 0.36 0.35 0.35 0.30 0.28 0.27 0.19 0.24 0.27 0.32 0.39 0.45 0.66 0.68 0.63 0.65 0.72
0.90 0.96 0.91 0.73 0.65 0.75 0.67 0.58 0.51 0.61 0.27 0.25 0.38 0.28 0.38 0.43 0.33 0.39 0.43 0.40 0.43 0.41 0.44 0.43 0.45 0.41 0.41 0.38 0.34 0.29 0.39 0.38 0.35 0.31 0.17 0.30 0.22 0.33 0.39 0.44 0.50 0.57 0.63 0.71 0.76
0.83 0.92 0.92 0.69 0.69 0.67 0.80 0.81 0.74 0.67 0.14 0.30 0.39 0.43 0.36 0.35 0.32 0.34 0.44 0.42 0.38 0.43 0.44 0.41 0.42 0.39 0.40 0.39 0.39 0.35 0.39 0.36 0.36 0.34 0.36 0.34 0.30 0.32 0.43 0.39 0.43 0.54 0.58 0.66 0.74
0.81 0.88 0.93 0.66 0.69 0.77 0.99 0.95 0.81 0.33 0.16 0.35 0.40 0.34 0.31 0.33 0.30 0.34 0.38 0.43 0.48 0.44 0.43 0.43 0.48 0.46 0.42 0.40 0.39 0.38 0.34 0.32 0.36 0.35 0.26 0.28 0.28 0.33 0.36 0.40 0.44 0.51 0.59 0.62 0.74
0.84 0.86 0.87 0.69 0.55 0.90 0.92 0.82 0.34 0.24 0.31 0.33 0.32 0.34 0.32 0.29 0.27 0.31 0.33 0.32 0.31 0.30 0.31 0.38 0.40 0.48 0.48 0.35 0.36 0.38 0.28 0.24 0.21 0.22 0.20 0.37 0.36 0.36 0.42 0.47 0.43 0.44 0.47 0.56 0.72
0.83 0.87 0.88 0.71 0.82 0.92 0.85 0.56 0.27 0.28 0.27 0.35 0.35 0.35 0.27 0.28 0.27 0.30 0.33 0.30 0.29 0.29 0.32 0.33 0.28 0.41 0.51 0.39 0.35 0.38 0.29 0.25 0.20 0.24 0.27 0.39 0.35 0.34 0.41 0.49 0.52 0.50 0.56 0.59 0.68
0.86 0.77 0.78 0.74 0.85 0.93 0.65 0.35 0.29 0.32 0.28 0.32 0.33 0.28 0.23 0.29 0.32 0.28 0.29 0.31 0.31 0.26 0.27 0.32 0.35 0.47 0.52 0.46 0.44 0.32 0.32 0.40 0.34 0.38 0.32 0.35 0.34 0.43 0.49 0.46 0.54 0.52 0.54 0.58 0.66
0.72 0.67 0.59 0.81 0.84 0.84 0.50 0.35 0.37 0.38 0.43 0.38 0.30 0.26 0.22 0.28 0.31 0.30 0.28 0.28 0.30 0.31 0.37 0.38 0.31 0.46 0.53 0.52 0.44 0.30 0.38 0.31 0.31 0.20 0.15 0.17 0.25 0.31 0.42 0.45 0.40 0.41 0.48 0.60 0.65
0.70 0.48 0.62 0.85 0.81 0.64 0.33 0.38 0.40 0.42 0.50 0.44 0.35 0.26 0.23 0.27 0.34 0.29 0.28 0.32 0.35 0.37 0.45 0.43 0.38 0.38 0.50 0.44 0.31 0.29 0.25 0.21 0.24 0.24 0.20 0.17 0.21 0.32 0.30 0.32 0.32 0.47 0.55 0.58 0.59
0.58 0.36 0.64 0.84 0.45 0.50 0.34 0.40 0.43 0.43 0.53 0.51 0.44 0.31 0.24 0.31 0.36 0.28 0.25 0.40 0.45 0.43 0.40 0.53 0.41 0.31 0.34 0.38 0.37 0.31 0.32 0.41 0.25 0.19 0.24 0.22 0.18 0.32 0.28 0.29 0.32 0.34 0.49 0.57 0.61
0.50 0.50 0.78 0.69 0.28 0.34 0.39 0.38 0.40 0.44 0.49 0.49 0.40 0.34 0.31 0.32 0.36 0.28 0.30 0.48 0.50 0.46 0.43 0.39 0.29 0.21 0.23 0.32 0.40 0.34 0.29 0.32 0.35 0.33 0.26 0.19 0.18 0.30 0.28 0.29 0.31 0.31 0.36 0.51 0.59
0.55 0.40 0.59 0.60 0.37 0.35 0.31 0.28 0.32 0.47 0.52 0.52 0.43 0.36 0.33 0.36 0.42 0.38 0.33 0.45 0.47 0.44 0.44 0.39 0.28 0.22 0.14 0.14 0.31 0.34 0.36 0.33 0.26 0.22 0.24 0.23 0.23 0.20 0.25 0.30 0.32 0.33 0.36 0.42 0.51
0.59 0.40 0.55 0.36 0.38 0.35 0.37 0.31 0.31 0.39 0.52 0.54 0.43 0.34 0.34 0.32 0.35 0.38 0.42 0.40 0.44 0.43 0.39 0.33 0.20 0.23 0.23 0.27 0.33 0.35 0.36 0.41 0.32 0.27 0.23 0.24 0.25 0.23 0.31 0.32 0.34 0.36 0.37 0.38 0.43
0.52 0.41 0.54 0.47 0.50 0.40 0.35 0.30 0.32 0.41 0.48 0.45 0.44 0.32 0.37 0.33 0.32 0.32 0.38 0.39 0.34 0.41 0.35 0.34 0.21 0.24 0.21 0.26 0.30 0.30 0.36 0.36 0.36 0.32 0.29 0.28 0.27 0.32 0.35 0.34 0.33 0.34 0.37 0.40 0.42
0.67 0.62 0.53 0.47 0.49 0.39 0.30 0.32 0.35 0.42 0.48 0.47 0.47 0.40 0.35 0.40 0.43 0.51 0.49 0.53 0.52 0.44 0.38 0.36 0.30 0.27 0.23 0.30 0.26 0.18 0.19 0.23 0.24 0.31 0.31 0.23 0.27 0.32 0.33 0.34 0.35 0.36 0.37 0.38 0.39